| time (UTC) | temp C | wind direction | speed KPH | gust KPH | rain 1hr cm | rain 24hr cm | rain mn cm | humidity % | barometer mb |
| 20260831191633 | 35 | 216 | 6.4 | 12.9 | 0.00 | 0.00 | 0.00 | 21 | 1017.3 |
| 20260831190129 | 34 | 141 | 4.8 | 12.9 | 0.00 | 0.00 | 0.00 | 21 | 1017.7 |
| 20260831184621 | 34 | 298 | 1.6 | 6.4 | 0.00 | 0.00 | 0.00 | 23 | 1017.9 |
| 20260831183137 | 34 | 259 | 1.6 | 6.4 | 0.00 | 0.00 | 0.00 | 24 | 1018.0 |
| 20260831181648 | 33 | 107 | 1.6 | 6.4 | 0.00 | 0.00 | 0.00 | 23 | 1018.3 |
| 20260831180139 | 33 | 250 | 0.0 | 9.7 | 0.00 | 0.00 | 0.00 | 24 | 1018.4 |
| 20260831174635 | 32 | 274 | 0.0 | 9.7 | 0.00 | 0.00 | 0.00 | 25 | 1018.6 |
| 20260831173127 | 32 | 217 | 0.0 | 8.0 | 0.00 | 0.00 | 0.00 | 26 | 1018.7 |
| 20260831171622 | 32 | 94 | 0.0 | 4.8 | 0.00 | 0.00 | 0.00 | 26 | 1018.8 |
| 20260831170134 | 31 | 333 | 3.2 | 8.0 | 0.00 | 0.00 | 0.00 | 27 | 1018.9 |
| 20260831164621 | 31 | 300 | 1.6 | 11.3 | 0.00 | 0.00 | 0.00 | 27 | 1019.0 |
| 20260831163136 | 31 | 354 | 3.2 | 9.7 | 0.00 | 0.00 | 0.00 | 27 | 1019.0 |
| 20260831161627 | 30 | 296 | 1.6 | 12.9 | 0.00 | 0.00 | 0.00 | 30 | 1018.8 |
| 20260831160144 | 30 | 315 | 3.2 | 9.7 | 0.00 | 0.00 | 0.00 | 29 | 1018.8 |
| 20260831154629 | 29 | 350 | 1.6 | 4.8 | 0.00 | 0.00 | 0.00 | 31 | 1018.7 |
| 20260831153139 | 28 | 2 | 0.0 | 9.7 | 0.00 | 0.00 | 0.00 | 32 | 1018.8 |
| 20260831151634 | 28 | 298 | 1.6 | 9.7 | 0.00 | 0.00 | 0.00 | 34 | 1018.9 |
| 20260831150144 | 27 | 313 | 1.6 | 8.0 | 0.00 | 0.00 | 0.00 | 33 | 1018.8 |
| 20260831144634 | 27 | 303 | 1.6 | 9.7 | 0.00 | 0.00 | 0.00 | 36 | 1018.7 |
| 20260831143126 | 26 | 348 | 1.6 | 4.8 | 0.00 | 0.00 | 0.00 | 38 | 1018.4 |
| 20260831141639 | 25 | 339 | 1.6 | 6.4 | 0.00 | 0.00 | 0.00 | 38 | 1018.2 |
| 20260831140132 | 24 | 26 | 3.2 | 6.4 | 0.00 | 0.00 | 0.00 | 39 | 1018.0 |
| 20260831134645 | 22 | 333 | 0.0 | 6.4 | 0.00 | 0.00 | 0.00 | 45 | 1017.9 |
| 20260831133136 | 21 | 314 | 1.6 | 4.8 | 0.00 | 0.00 | 0.00 | 47 | 1017.6 |
| 20260831131653 | 21 | 355 | 0.0 | 0.0 | 0.00 | 0.00 | 0.00 | 53 | 1017.2 |
| 20260831130123 | 22 | 239 | 0.0 | 1.6 | 0.00 | 0.00 | 0.00 | 47 | 1017.0 |
| 20260831124639 | 23 | 161 | 0.0 | 0.0 | 0.00 | 0.00 | 0.00 | 44 | 1016.9 |
| 20260831123132 | 23 | 170 | 0.0 | 1.6 | 0.00 | 0.00 | 0.00 | 44 | 1016.7 |
| 20260831121649 | 23 | 135 | 0.0 | 0.0 | 0.00 | 0.00 | 0.00 | 43 | 1016.5 |
| 20260831120120 | 23 | 167 | 0.0 | 0.0 | 0.00 | 0.00 | 0.00 | 43 | 1016.5 |
| 20260831114631 | 25 | 161 | 0.0 | 6.4 | 0.00 | 0.00 | 0.00 | 40 | 1016.6 |
| 20260831113148 | 23 | 199 | 0.0 | 1.6 | 0.00 | 0.00 | 0.00 | 43 | 1016.6 |
| 20260831111639 | 22 | 292 | 0.0 | 1.6 | 0.00 | 0.00 | 0.00 | 47 | 1016.7 |
| 20260831110156 | 23 | 265 | 0.0 | 0.0 | 0.00 | 0.00 | 0.00 | 44 | 1016.6 |
| 20260831104628 | 23 | 225 | 0.0 | 0.0 | 0.00 | 0.00 | 0.00 | 43 | 1016.6 |
| 20260831103141 | 23 | 145 | 0.0 | 1.6 | 0.00 | 0.00 | 0.00 | 43 | 1016.5 |
| 20260831101635 | 22 | 123 | 0.0 | 0.0 | 0.00 | 0.00 | 0.00 | 41 | 1016.7 |
| 20260831100129 | 22 | 123 | 0.0 | 0.0 | 0.00 | 0.00 | 0.00 | 39 | 1016.5 |
| 20260831094625 | 23 | 256 | 0.0 | 1.6 | 0.00 | 0.00 | 0.00 | 37 | 1016.7 |
| 20260831093158 | 25 | 88 | 0.0 | 9.7 | 0.00 | 0.00 | 0.00 | 33 | 1016.7 |
| 20260831091629 | 23 | 133 | 0.0 | 1.6 | 0.00 | 0.00 | 0.00 | 36 | 1016.7 |
| 20260831090146 | 24 | 338 | 0.0 | 1.6 | 0.00 | 0.00 | 0.00 | 34 | 1016.6 |
| 20260831084636 | 24 | 83 | 0.0 | 0.0 | 0.00 | 0.00 | 0.00 | 35 | 1016.6 |
| 20260831083133 | 25 | 119 | 0.0 | 1.6 | 0.00 | 0.00 | 0.00 | 34 | 1016.5 |
| 20260831081623 | 25 | 61 | 0.0 | 4.8 | 0.00 | 0.00 | 0.00 | 31 | 1016.4 |
| 20260831080121 | 25 | 69 | 0.0 | 1.6 | 0.00 | 0.00 | 0.00 | 34 | 1016.5 |
| 20260831074632 | 26 | 67 | 0.0 | 1.6 | 0.00 | 0.00 | 0.00 | 31 | 1016.7 |
| 20260831073124 | 26 | 251 | 0.0 | 6.4 | 0.00 | 0.00 | 0.00 | 29 | 1016.6 |
| 20260831071621 | 28 | 154 | 0.0 | 6.4 | 0.00 | 0.00 | 0.00 | 24 | 1016.6 |
| 20260831070133 | 28 | 135 | 3.2 | 6.4 | 0.00 | 0.00 | 0.00 | 25 | 1016.4 |
| 20260831064650 | 28 | 153 | 4.8 | 9.7 | 0.00 | 0.00 | 0.00 | 26 | 1016.3 |
| 20260831063142 | 28 | 177 | 1.6 | 6.4 | 0.00 | 0.00 | 0.00 | 26 | 1016.3 |
| 20260831061655 | 30 | 204 | 1.6 | 16.1 | 0.00 | 0.00 | 0.00 | 24 | 1016.2 |
| 20260831060152 | 29 | 135 | 6.4 | 11.3 | 0.00 | 0.00 | 0.00 | 24 | 1016.1 |
| 20260831054622 | 29 | 152 | 3.2 | 9.7 | 0.00 | 0.00 | 0.00 | 24 | 1016.1 |
| 20260831053200 | 29 | 137 | 3.2 | 8.0 | 0.00 | 0.00 | 0.00 | 25 | 1016.1 |
| 20260831051629 | 28 | 178 | 0.0 | 3.2 | 0.00 | 0.00 | 0.00 | 26 | 1016.2 |
| 20260831050141 | 29 | 131 | 0.0 | 1.6 | 0.00 | 0.00 | 0.00 | 27 | 1016.4 |
| 20260831044636 | 29 | 81 | 0.0 | 0.0 | 0.00 | 0.00 | 0.00 | 26 | 1016.4 |
| 20260831043129 | 30 | 210 | 0.0 | 1.6 | 0.00 | 0.00 | 0.00 | 23 | 1016.3 |
| 20260831041624 | 31 | 99 | 0.0 | 1.6 | 0.00 | 0.00 | 0.00 | 22 | 1016.2 |
| 20260831040136 | 30 | 8 | 0.0 | 3.2 | 0.00 | 0.00 | 0.00 | 25 | 1016.2 |
| 20260831034634 | 31 | 145 | 0.0 | 6.4 | 0.00 | 0.00 | 0.00 | 22 | 1016.2 |
| 20260831033125 | 31 | 61 | 0.0 | 6.4 | 0.00 | 0.00 | 0.00 | 26 | 1016.1 |
| 20260831031637 | 30 | 130 | 0.0 | 3.2 | 0.00 | 0.00 | 0.00 | 28 | 1015.8 |
| 20260831030132 | 30 | 94 | 0.0 | 3.2 | 0.00 | 0.00 | 0.00 | 29 | 1015.3 |
| 20260831024624 | 30 | 81 | 0.0 | 0.0 | 0.00 | 0.00 | 0.00 | 33 | 1015.1 |
| 20260831023142 | 30 | 255 | 0.0 | 0.0 | 0.00 | 0.00 | 0.00 | 34 | 1015.0 |
| 20260831021633 | 30 | 255 | 0.0 | 0.0 | 0.00 | 0.00 | 0.00 | 29 | 1014.9 |
| 20260831020125 | 31 | 255 | 0.0 | 0.0 | 0.00 | 0.00 | 0.00 | 25 | 1014.8 |
| 20260831014640 | 31 | 255 | 0.0 | 0.0 | 0.00 | 0.00 | 0.00 | 24 | 1014.7 |
| 20260831013131 | 32 | 255 | 0.0 | 0.0 | 0.00 | 0.00 | 0.00 | 24 | 1014.4 |
| 20260831011627 | 33 | 255 | 0.0 | 0.0 | 0.00 | 0.00 | 0.00 | 23 | 1014.7 |
| 20260831010140 | 35 | 245 | 0.0 | 1.6 | 0.00 | 0.00 | 0.00 | 21 | 1014.7 |
| 20260831004632 | 36 | 242 | 0.0 | 1.6 | 0.00 | 0.00 | 0.00 | 18 | 1014.6 |
| 20260831003127 | 36 | 214 | 0.0 | 3.2 | 0.00 | 0.00 | 0.00 | 18 | 1014.7 |
| 20260831001637 | 36 | 305 | 0.0 | 1.6 | 0.00 | 0.00 | 0.00 | 16 | 1014.7 |
| 20260831000156 | 36 | 279 | 0.0 | 4.8 | 0.00 | 0.00 | 0.00 | 18 | 1014.7 |
| 20260830234626 | 37 | 282 | 0.0 | 3.2 | 0.00 | 0.00 | 0.00 | 16 | 1014.7 |
| 20260830233121 | 36 | 213 | 0.0 | 1.6 | 0.00 | 0.00 | 0.00 | 16 | 1014.9 |
| 20260830231634 | 36 | 290 | 0.0 | 6.4 | 0.00 | 0.00 | 0.00 | 17 | 1015.1 |
| 20260830230125 | 36 | 118 | 4.8 | 12.9 | 0.00 | 0.00 | 0.00 | 16 | 1015.1 |
| 20260830224701 | 36 | 305 | 3.2 | 11.3 | 0.00 | 0.00 | 0.00 | 16 | 1015.4 |
| 20260830223153 | 36 | 239 | 1.6 | 6.4 | 0.00 | 0.00 | 0.00 | 16 | 1015.5 |
| 20260830221627 | 36 | 360 | 8.0 | 12.9 | 0.00 | 0.00 | 0.00 | 17 | 1015.8 |
| 20260830220140 | 36 | 241 | 8.0 | 14.5 | 0.00 | 0.00 | 0.00 | 17 | 1015.8 |
| 20260830214653 | 36 | 249 | 6.4 | 12.9 | 0.00 | 0.00 | 0.00 | 18 | 1015.8 |
| 20260830213127 | 35 | 233 | 3.2 | 12.9 | 0.00 | 0.00 | 0.00 | 18 | 1016.0 |
| 20260830211637 | 35 | 304 | 3.2 | 11.3 | 0.00 | 0.00 | 0.00 | 19 | 1016.2 |
| 20260830210155 | 35 | 298 | 4.8 | 16.1 | 0.00 | 0.00 | 0.00 | 20 | 1016.4 |
| 20260830204626 | 35 | 317 | 6.4 | 14.5 | 0.00 | 0.00 | 0.00 | 20 | 1016.7 |
| 20260830203138 | 35 | 241 | 3.2 | 16.1 | 0.00 | 0.00 | 0.00 | 20 | 1016.9 |
| 20260830201633 | 35 | 306 | 9.7 | 16.1 | 0.00 | 0.00 | 0.00 | 20 | 1017.4 |
| 20260830200124 | 35 | 317 | 4.8 | 12.9 | 0.00 | 0.00 | 0.00 | 20 | 1017.7 |
| 20260830194620 | 35 | 304 | 6.4 | 11.3 | 0.00 | 0.00 | 0.00 | 21 | 1017.9 |
| 20260830193132 | 35 | 277 | 1.6 | 16.1 | 0.00 | 0.00 | 0.00 | 21 | 1018.2 |